Regional Weather Roundup
Issued by NWS

Home | Current Version | Previous Version | Graphics & Text | Print | Product List | Glossary On
Versions: 1 2 3 4 5 6 7 8 9 10 11 12 13 14 15 16 17 18 19 20 21 22 23 24 25 26 27 28 29 30 31 32 33 34 35 36 37 38 39 40 41 42 43 44 45 46 47 48 49 50
000
ASUS45 KCYS 270610
RWRWY

WYOMING REGIONAL WEATHER ROUNDUP
NATIONAL WEATHER SERVICE CHEYENNE WY
1200 AM MDT WED AUG 27 2014

NOTE:  "FAIR" INDICATES FEW OR NO CLOUDS BELOW 12,000 FEET
WITH NO SIGNIFICANT WEATHER AND/OR OBSTRUCTIONS TO VISIBILITY.

WYZ001-270700-
YELLOWSTONE NATIONAL PARK

CITY           SKY/WX    TMP DP  RH WIND       PRES   REMARKS
LK YELLOWSTONE   N/A     37  35  92 NW3       30.39R
6HR MIN TEMP:  37; 6HR MAX TEMP:  60;

W YELLOWSTONE  NOT AVBL

$$
WYZ002>013-054>058-071-098>099-270700-
NORTHERN WYOMING

CITY           SKY/WX    TMP DP  RH WIND       PRES   REMARKS
JACKSON        PTCLDY    48  45  87 N8        30.29S
CODY           PTCLDY    57  50  77 S3        30.20S
GREYBULL       CLEAR     66  46  48 E8        30.13S
6HR MIN TEMP:  62; 6HR MAX TEMP:  80;

WORLAND        NOT AVBL
SHERIDAN       CLEAR     56  49  77 S5        30.17S
6HR MIN TEMP:  54; 6HR MAX TEMP:  78;

BUFFALO        CLEAR     56  47  71 W6        30.24R
6HR MIN TEMP:  55; 6HR MAX TEMP:  71;

GILLETTE       CLEAR     53  50  89 SW5       30.20R
6HR MIN TEMP:  52; 6HR MAX TEMP:  73;

HULETT         FAIR      59  54  82 MISG      30.21
NEWCASTLE      FAIR      64  54  68 N5        30.20

$$
WYZ014>020-022>026-101>103-270700-
CENTRAL WYOMING

CITY           SKY/WX    TMP DP  RH WIND       PRES   REMARKS
BIG PINEY      CLOUDY    50  45  83 CALM      30.32S
6HR MIN TEMP:  50; 6HR MAX TEMP:  65;

PINEDALE       MOCLDY    45  45 100 NW3       30.33S
DUBOIS         FAIR      46  39  76 NW8       30.33R
LANDER         MOCLDY    64  46  52 SW8       30.21F
6HR MIN TEMP:  60; 6HR MAX TEMP:  74;

RIVERTON       MOCLDY    63  46  54 NE8       30.21F
6HR MIN TEMP:  63; 6HR MAX TEMP:  76;

CASPER         MOCLDY    59  50  72 NE12      30.22F
6HR MIN TEMP:  59; 6HR MAX TEMP:  76;

DOUGLAS        PTCLDY    60  55  83 E3        30.22R
6HR MIN TEMP:  60; 6HR MAX TEMP:  79;


$$
WYZ021-027>030-104>119-270700-
SOUTHERN WYOMING

CITY           SKY/WX    TMP DP  RH WIND       PRES   REMARKS
EVANSTON       CLOUDY    54  43  66 CALM      30.29F
6HR MIN TEMP:  53; 6HR MAX TEMP:  60;

KEMMERER       CLOUDY    52  45  76 CALM      30.32S
FORT BRIDGER   FAIR      54  46  74 N3        30.31F
ROCK SPRINGS   MOCLDY    54  43  66 SW5       30.28F
6HR MIN TEMP:  53; 6HR MAX TEMP:  65;

DIXON          FAIR      54  49  83 CALM      30.30S
RAWLINS        PTCLDY    56  43  61 CALM      30.28S
6HR MIN TEMP:  56; 6HR MAX TEMP:  70;

SARATOGA       FAIR      54  48  82 MISG      30.31S
LARAMIE        PTCLDY    53  44  71 SE6       30.29F
6HR MIN TEMP:  53; 6HR MAX TEMP:  66;

CHEYENNE       MOCLDY    58  51  78 CALM      30.25F
6HR MIN TEMP:  58; 6HR MAX TEMP:  71;

TORRINGTON     PTCLDY    58  51  78 NE9       30.14R
6HR MIN TEMP:  58; 6HR MAX TEMP:  80; 6HR PCP: TRACE;

PINE BLUFFS    FAIR      59  54  82 CALM      30.21S

$$


USA.gov is the U.S. government's official web portal to all federal, state and local government web resources and services.